Location: Camp Roosevelt
(41.7914°N, 81.1673°W)
Time: 02:00:28
(UTC+00:00)

Tianhe-1 - Visible Passes

Search period start: 22 June 2021 00:00
Search period end: 02 July 2021 00:00
Orbit: 375 x 386 km, 41.5° (Epoch: 21 June)

Date Brightness Start Highest point End Pass type
(mag) Time Alt. Az. Time Alt. Az. Time Alt. Az.
22 Jun 1.3 08:33:28 20° SW 08:35:21 53° SSE 08:38:26 10° E visible
23 Jun 2.2 07:35:06 31° SE 07:35:06 31° SE 07:37:22 10° E visible
23 Jun 1.0 09:07:53 10° W 09:11:02 83° S 09:14:12 10° E visible
24 Jun 1.0 08:08:51 33° WSW 08:10:04 70° SSE 08:13:12 10° E visible
25 Jun 2.7 07:10:30 27° E 07:10:30 27° E 07:12:11 10° E visible
25 Jun 1.0 08:42:39 10° W 08:45:47 87° S 08:48:58 10° E visible
26 Jun 0.9 07:44:20 61° WSW 07:44:48 83° S 07:47:57 10° E visible
27 Jun 3.5 06:46:07 17° E 06:46:07 17° E 06:46:57 10° E visible
27 Jun 0.9 08:18:15 17° W 08:20:33 82° S 08:23:42 10° E visible
28 Jun 1.5 07:20:12 53° E 07:20:12 53° E 07:22:42 10° E visible
28 Jun 1.3 08:53:10 10° W 08:56:14 49° SSW 08:59:17 10° ESE visible
29 Jun 0.9 07:54:33 47° WSW 07:55:17 68° S 07:58:25 10° ESE visible
30 Jun 3.8 06:57:10 12° E 06:57:10 12° E 06:57:26 10° E visible
30 Jun 1.7 08:29:22 21° WSW 08:30:54 34° SSW 08:33:47 10° SE visible
01 Jul 3.6 07:32:38 13° ESE 07:32:38 13° ESE 07:33:03 10° ESE visible
01 Jul 2.9 09:04:52 11° WSW 09:06:18 14° SSW 09:08:01 10° S visible
